This is the latest recevied weather packets stored in our database for station/object JF2ZGN-13. If no packets are shown the sender has not sent any weather packets the latest 10 day(s).
| Time | Temp. | Humidity | Pressure | Rain* | Wind** | Luminosity | Snow |
|---|---|---|---|---|---|---|---|
| 1778124534 | 17.22° C | 89% | 908.3 hPa | 0.25 mm | - | - | - |
| 1778123934 | 17.22° C | 86% | 908.3 hPa | 0.25 mm | - | - | - |
| 1778123333 | 17.22° C | 85% | 908.3 hPa | 0.25 mm | - | - | - |
| 1778122733 | 17.78° C | 86% | 908.3 hPa | 0.25 mm | - | - | - |
| 1778122132 | 17.78° C | 85% | 908.4 hPa | 0.25 mm | - | - | - |
| 1778121532 | 17.78° C | 86% | 908.5 hPa | 0.25 mm | - | - | - |
| 1778120932 | 17.78° C | 86% | 908.5 hPa | 0.25 mm | - | - | - |
| 1778120332 | 18.33° C | 83% | 908.7 hPa | 0.25 mm | - | - | - |
| 1778119730 | 18.33° C | 82% | 908.6 hPa | 0.25 mm | - | - | - |
| 1778119130 | 18.33° C | 84% | 908.7 hPa | 0.25 mm | - | - | - |
| 1778117929 | 17.78° C | 78% | 908.8 hPa | 0.25 mm | - | - | - |
| 1778117329 | 17.22° C | 79% | 908.8 hPa | 0.25 mm | - | - | - |
| 1778116728 | 17.22° C | 77% | 908.9 hPa | 0.25 mm | - | - | - |
| 1778116127 | 17.22° C | 76% | 908.8 hPa | 0.25 mm | - | - | - |
| 1778115527 | 17.22° C | 77% | 908.8 hPa | 0.25 mm | - | - | - |
| 1778114926 | 17.22° C | 77% | 908.8 hPa | 0.25 mm | - | - | - |
| 1778114327 | 17.22° C | 77% | 908.8 hPa | 0.25 mm | - | - | - |
| 1778113726 | 16.67° C | 76% | 908.7 hPa | 0.25 mm | - | - | - |
| 1778113125 | 17.22° C | 77% | 908.8 hPa | 0.25 mm | - | - | - |
| 1778112525 | 17.22° C | 75% | 908.7 hPa | 0.25 mm | - | - | - |
| 1778111925 | 17.22° C | 74% | 908.8 hPa | 0.25 mm | - | - | - |
| 1778111324 | 17.22° C | 73% | 908.8 hPa | 0.25 mm | - | - | - |
| 1778110723 | 16.67° C | 74% | 908.8 hPa | 0.25 mm | - | - | - |
| 1778110123 | 16.67° C | 73% | 908.9 hPa | 0.25 mm | - | - | - |
| 1778109522 | 16.67° C | 72% | 908.8 hPa | 0.25 mm | - | - | - |
* Rain since midnight (hover to see other rain measurements)
** Current wind speed in m/s (hover to see current wind gust speed)